UAL411 KSAN-KLAS

Flight info

Callsign UAL411
Flight time N/A
Altitude 29000
Route PADRZ2 CHKNN SEBBY YELAH MISEN RNDRZ4
Aircraft A20N/M-SDE2E3FGHIRWXY/LB1

Departure

Time N/A
Airport San Diego International Airport (KSAN)

Arrival

Time 2026-05-03 20:38
Airport Harry Reid International Airport (KLAS)
Time Latitude Longitude Altitude Speed Heading
2026-05-03 20:15 35.08710 -116.41904 23815 ft 504 kts 36°
2026-05-03 20:15 35.11303 -116.39057 23248 ft 499 kts 45°
2026-05-03 20:15 35.13668 -116.35989 22649 ft 492 kts 46°
2026-05-03 20:15 35.16005 -116.32965 22101 ft 485 kts 46°
2026-05-03 20:16 35.18294 -116.30007 21519 ft 479 kts 46°
2026-05-03 20:16 35.20567 -116.27069 21030 ft 471 kts 47°
2026-05-03 20:16 35.22799 -116.24181 20443 ft 464 kts 47°
2026-05-03 20:16 35.24983 -116.21279 19709 ft 463 kts 49°
2026-05-03 20:17 35.27167 -116.18275 19102 ft 473 kts 50°
2026-05-03 20:17 35.29311 -116.15308 18844 ft 458 kts 50°
2026-05-03 20:17 35.31392 -116.12431 18448 ft 447 kts 50°
2026-05-03 20:17 35.33447 -116.09598 17854 ft 442 kts 50°
2026-05-03 20:18 35.35478 -116.06802 17187 ft 437 kts 50°
2026-05-03 20:18 35.37485 -116.04041 16540 ft 432 kts 50°
2026-05-03 20:18 35.39449 -116.01340 16102 ft 422 kts 50°
2026-05-03 20:18 35.41365 -115.98704 15985 ft 405 kts 51°
2026-05-03 20:19 35.43193 -115.96187 15965 ft 386 kts 51°
2026-05-03 20:19 35.44910 -115.93819 15958 ft 367 kts 51°
2026-05-03 20:19 35.46565 -115.91533 15964 ft 350 kts 51°
2026-05-03 20:19 35.48143 -115.89350 15965 ft 334 kts 51°
2026-05-03 20:20 35.49690 -115.87204 15988 ft 339 kts 51°
2026-05-03 20:20 35.51258 -115.85026 15953 ft 340 kts 51°
2026-05-03 20:20 35.52819 -115.82863 15788 ft 337 kts 51°
2026-05-03 20:20 35.54367 -115.80719 15453 ft 335 kts 51°
2026-05-03 20:21 35.55906 -115.78588 15090 ft 332 kts 51°
2026-05-03 20:21 35.57431 -115.76476 14764 ft 329 kts 52°
2026-05-03 20:21 35.58949 -115.74371 14366 ft 327 kts 52°
2026-05-03 20:21 35.60454 -115.72302 14041 ft 323 kts 51°
2026-05-03 20:22 35.61966 -115.70264 13686 ft 321 kts 51°
2026-05-03 20:22 35.63464 -115.68255 13299 ft 318 kts 51°
2026-05-03 20:22 35.64943 -115.66269 13041 ft 309 kts 51°
2026-05-03 20:22 35.66414 -115.64283 12996 ft 319 kts 51°
2026-05-03 20:23 35.67918 -115.62244 13008 ft 327 kts 51°
2026-05-03 20:23 35.69448 -115.60170 13005 ft 326 kts 51°
2026-05-03 20:23 35.70967 -115.58115 13004 ft 324 kts 51°
2026-05-03 20:23 35.72545 -115.56115 13006 ft 327 kts 44°
2026-05-03 20:24 35.74393 -115.54462 13002 ft 330 kts 32°
2026-05-03 20:24 35.76370 -115.53100 13004 ft 330 kts 31°
2026-05-03 20:24 35.78367 -115.51712 13006 ft 330 kts 32°
2026-05-03 20:24 35.80372 -115.50307 13014 ft 331 kts 32°
2026-05-03 20:25 35.82366 -115.48906 13011 ft 328 kts 32°
2026-05-03 20:25 35.84355 -115.47507 13013 ft 334 kts 32°
2026-05-03 20:25 35.86378 -115.46083 13014 ft 335 kts 32°
2026-05-03 20:25 35.88407 -115.44666 12986 ft 334 kts 32°
2026-05-03 20:26 35.90429 -115.43259 12752 ft 333 kts 32°
2026-05-03 20:26 35.92429 -115.41864 12548 ft 326 kts 32°
2026-05-03 20:26 35.94409 -115.40478 12127 ft 326 kts 32°
2026-05-03 20:26 35.96379 -115.39100 11703 ft 326 kts 32°
2026-05-03 20:27 35.98338 -115.37728 11407 ft 320 kts 32°
2026-05-03 20:27 36.00161 -115.36197 11063 ft 312 kts 49°
2026-05-03 20:27 36.01336 -115.34051 10752 ft 295 kts 76°
2026-05-03 20:27 36.01658 -115.31635 10441 ft 279 kts 97°
2026-05-03 20:28 36.01522 -115.29267 10101 ft 275 kts 101°
2026-05-03 20:28 36.01326 -115.26934 9782 ft 272 kts 101°
2026-05-03 20:28 36.01148 -115.24643 9437 ft 270 kts 100°
2026-05-03 20:28 36.00997 -115.22337 9137 ft 267 kts 100°
2026-05-03 20:29 36.00873 -115.20098 9035 ft 254 kts 99°
2026-05-03 20:29 36.00768 -115.17989 9029 ft 238 kts 99°
2026-05-03 20:29 36.00669 -115.15972 8911 ft 232 kts 99°
2026-05-03 20:29 36.00568 -115.13987 8550 ft 232 kts 99°
2026-05-03 20:30 36.00462 -115.11980 8168 ft 233 kts 100°
2026-05-03 20:30 36.00362 -115.09993 8096 ft 232 kts 100°
2026-05-03 20:30 36.00254 -115.07982 8009 ft 235 kts 101°
2026-05-03 20:30 36.00136 -115.05973 8036 ft 237 kts 100°
2026-05-03 20:31 36.00039 -115.03955 8027 ft 234 kts 99°
2026-05-03 20:31 35.99939 -115.01921 8030 ft 238 kts 99°
2026-05-03 20:31 35.99859 -114.99895 7939 ft 237 kts 96°
2026-05-03 20:31 35.99850 -114.97873 7783 ft 231 kts 95°
2026-05-03 20:32 35.99865 -114.95966 7742 ft 212 kts 95°
2026-05-03 20:32 35.99877 -114.94186 7451 ft 204 kts 95°
2026-05-03 20:32 36.00166 -114.92473 7089 ft 211 kts 66°
2026-05-03 20:32 36.01206 -114.91169 6683 ft 220 kts 36°
2026-05-03 20:33 36.02504 -114.90211 6352 ft 218 kts 30°
2026-05-03 20:33 36.03943 -114.89835 6168 ft 212 kts 353°
2026-05-03 20:33 36.05262 -114.90482 5980 ft 199 kts 323°
2026-05-03 20:33 36.06413 -114.91410 5671 ft 198 kts 322°
2026-05-03 20:34 36.07254 -114.92710 5243 ft 194 kts 279°
2026-05-03 20:34 36.07412 -114.94341 4915 ft 190 kts 263°
2026-05-03 20:34 36.07363 -114.95947 4641 ft 185 kts 264°
2026-05-03 20:34 36.07369 -114.97513 4359 ft 179 kts 264°
2026-05-03 20:35 36.07363 -114.99021 4161 ft 177 kts 262°
2026-05-03 20:35 36.07362 -115.00552 3948 ft 175 kts 263°
2026-05-03 20:35 36.07365 -115.02005 3738 ft 164 kts 261°
2026-05-03 20:35 36.07428 -115.03393 3556 ft 161 kts 265°
2026-05-03 20:36 36.07410 -115.04775 3349 ft 163 kts 260°
2026-05-03 20:36 36.07366 -115.06190 3154 ft 164 kts 262°
2026-05-03 20:36 36.07362 -115.07468 2941 ft 157 kts 264°
2026-05-03 20:36 36.07362 -115.08820 2731 ft 160 kts 268°
2026-05-03 20:37 36.07362 -115.10168 2490 ft 154 kts 270°
2026-05-03 20:37 36.07358 -115.11467 2292 ft 153 kts 270°
2026-05-03 20:37 36.07348 -115.12786 2149 ft 152 kts 272°
2026-05-03 20:37 36.07364 -115.13952 2124 ft 102 kts 271°
2026-05-03 20:38 36.07368 -115.14516 2127 ft 54 kts 268°
2026-05-03 20:38 36.07399 -115.14843 2127 ft 0 kts 293°
2026-05-03 20:38 36.07399 -115.14845 2127 ft 2 kts 292°
2026-05-03 20:38 36.07412 -115.14884 2127 ft 9 kts 292°
2026-05-03 20:39 36.07445 -115.14983 2124 ft 17 kts 292°
2026-05-03 20:39 36.07523 -115.15121 2122 ft 22 kts 319°
2026-05-03 20:39 36.07659 -115.15207 2127 ft 24 kts 334°
2026-05-03 20:39 36.07816 -115.15299 2128 ft 26 kts 334°
2026-05-03 20:40 36.07993 -115.15402 2130 ft 30 kts 334°
2026-05-03 20:40 36.08194 -115.15516 2128 ft 33 kts 336°
2026-05-03 20:40 36.08411 -115.15646 2124 ft 35 kts 335°
2026-05-03 20:40 36.08496 -115.15645 2123 ft 14 kts 35°
2026-05-03 20:41 36.08633 -115.15549 2116 ft 27 kts 32°
2026-05-03 20:41 36.08690 -115.15402 2115 ft 8 kts 126°
2026-05-03 20:41 36.08675 -115.15375 2113 ft 0 kts 117°